User: anonymous   Login
Location: Unspecified
(0.0000°N, 0.0000°E)
Time: 21:47:25
(UTC+00:00)
Language:

COSMOS 2497 - Orbit

View from above orbital plane
View from above orbital plane
View from above satellite
View from above satellite

Ground track
Ground track

The orbit data is extracted from the following two-line orbital elements,

1 39762U 14028B   17117.73716499 +.00000010 +00000-0 +00000-0 0  9996
2 39762 082.4541 039.6459 0020699 137.8929 222.3749 12.42864900132982
Epoch (UTC): 27 April 2017 17:41:31
Eccentricity: 0.0020699
inclination: 82.4541°
perigee height: 1478 km
apogee height: 1511 km
right ascension of ascending node: 39.6459°
argument of perigee: 137.8929°
revolutions per day: 12.42864900
mean anomaly at epoch: 222.3749°
orbit number at epoch: 13298

The dashed part of the orbit path shows where the satellite is in the earth's shadow,  

DLR